Regional Weather Roundup
Issued by NWS

Home | Current Version | Previous Version | Text Only | Print | Product List | Glossary On
Versions: 1 2 3 4 5 6 7 8 9 10 11 12 13 14 15 16 17 18 19 20 21 22 23 24 25 26 27 28 29 30 31 32 33 34 35 36 37 38 39 40 41 42 43 44 45 46 47 48 49 50
000
ASCA44 KEWX 191920
RWRMX

LATIN AMERICA AND CARIBBEAN REGIONAL WEATHER ROUNDUP
NATIONAL WEATHER SERVICE AUSTIN/SAN ANTONIO TX
100 PM CST THU JAN 19 2017

NOTE: "FAIR" INDICATED FEW OR NO CLOUDS BELOW 12,000 FEET WITH NO
SIGNIFICANT WEATHER AND/OR OBSTRUCTIONS TO VISIBILITY.

BAJA CALIFORNIA

CITY           SKY/WX    TMP DP  RH WIND       PRES   REMARKS
LORETO         MOSUNNY   68  50  52 SE6       30.03S
LA PAZ         SUNNY     72  41  33 N5        30.08F
MEXICALI       MOSUNNY   61  54  77 E10       29.93F
S.J. DEL CABO  SUNNY     73  32  21 N6        30.07F
TIJUANA        CLOUDY    57  54  88 W14       30.03

NORTHWESTERN MEXICO

CITY           SKY/WX    TMP DP  RH WIND       PRES   REMARKS
CULIACAN       SUNNY     72  54  53 S9        30.03F
DURANGO        SUNNY     66  21  18 SW18      30.14F
GUAYMAS        CLOUDY    68  46  45 SW8       30.01R
HERMOSILLO     CLOUDY    64  43  45 E9        30.04F
CD. JUAREZ     PTSUNNY   55  39  54 W15       29.91F
LOS MOCHIS     SUNNY     72  45  37 W7        30.04F
OBREGON        MOSUNNY   72  37  28 NE2       29.99F

NORTHEASTERN MEXICO

CITY           SKY/WX    TMP DP  RH WIND       PRES   REMARKS
CHIHUAHUA      MOSUNNY   64  23  20 S12       30.03F
MATAMOROS      CLOUDY    63  59  88 NE5       29.89F
MONCLOVA       SUNNY     77  45  31 W54       29.90F
MONTERREY      MOSUNNY   72  54  53 SE6       29.86F
NUEVO LAREDO   SUNNY     75  52  43 W6        29.85F
PIEDRAS NEGRAS   N/A    N/A N/A N/A MISG        N/A
REYNOSA        CLOUDY    63  57  82 NE3       29.87F
SALTILLO       SUNNY     75  45  33 W7        30.02F
TORREON        SUNNY     70  34  26 NW3       30.02
CD. VICTORIA   PTSUNNY   81  63  54 SE16      29.83F

WESTERN MEXICO

CITY           SKY/WX    TMP DP  RH WIND       PRES   REMARKS
AGUASCALIENTES CLOUDY    70  34  26 SW17      30.20F
COLIMA         PTSUNNY   79  55  44 CALM      30.07F
DEL BAJIO      PTSUNNY   72  39  30 W13       30.24F
GUADALAJARA    PTSUNNY   72  37  28 W5        30.16F
MANZANILLO     MOSUNNY   81  72  74 SW12      29.90
MAZATLAN       MOSUNNY   75  52  43 W8        30.05F
P. VALLARTA    CLOUDY    77  66  69 S8        30.00F
URUAPAN        CLOUDY    70  48  46 CALM      30.18F
ZACATECAS      PTSUNNY   61  34  36 SW23      30.19

CENTRAL MEXICO

CITY           SKY/WX    TMP DP  RH WIND       PRES   REMARKS
CUERNAVACA     PTSUNNY   79  46  31 SE8       30.12F
MEXICO CITY    PTSUNNY   72  28  20 E5        30.25F
MORELIA        PTSUNNY   73  41  31 SE7       30.19F
POZA RICA      PTSUNNY   82  70  65 NE7       29.90F
PUEBLA         PTSUNNY   66  43  42 E3        30.26F
QUERETARO      PTSUNNY   70  39  32 W14       30.24F
S. LUIS POTOSI PTSUNNY   73  23  15 W9        30.12
TAMPICO        PTSUNNY   77  70  78 S7        29.85F HAZE
TOLUCA         PTSUNNY   64  30  27 NW6       30.34

SOUTHERN MEXICO

CITY           SKY/WX    TMP DP  RH WIND       PRES   REMARKS
ACAPULCO       PTSUNNY   86  61  42 SW7       29.91F
B. DE HUATULCO   N/A    N/A N/A N/A MISG        N/A
OAXACA         PTSUNNY   77  43  29 SE7       30.15F
P. ESCONDIDO   MOSUNNY   84  68  58 S9        29.99
VERACRUZ       MOSUNNY   84  70  61 SW2       29.87F
ZIHUATANEJO    PTSUNNY   86  72  62 SW9       29.94  HX  92

YUCATAN PENINSULA

CITY           SKY/WX    TMP DP  RH WIND       PRES   REMARKS
CAMPECHE       MOSUNNY   90  68  48 SE12      29.87F HX  93
CANCUN         PTSUNNY   82  68  61 E9        29.98F
CHETUMAL       MOSUNNY   82  72  69 SE13      29.94F
CD. DEL CARMEN SUNNY     84  68  58 SE9       29.89F
COZUMEL        MOSUNNY   84  66  54 S9        29.96F
MERIDA         PTSUNNY   90  63  40 SE9       29.91F HX  90
MINATITLAN     MOSUNNY   82  75  78 SW9       29.87F
TAPACHULA      MOSUNNY   90  70  51 W6        29.89F HX  95
TUX. GUTIERREZ MOSUNNY   86  59  39 SE12      29.94F
VILLAHERMOSA   PTSUNNY   82  72  69 CALM      29.91F HAZE

CENTRAL AMERICA

CITY           SKY/WX    TMP DP  RH WIND       PRES   REMARKS
BELIZE CITY    MOSUNNY   84  73  70 SE8       29.93F HX  91
MANAGUA        PTCLDY    84  66  54 SE16      29.86F

CARIBBEAN

CITY           SKY/WX    TMP DP  RH WIND       PRES   REMARKS
ARUBA          MOSUNNY   84  72  65 E16       29.86F
CURACAO        MOSUNNY   82  73  74 E10       29.89F
KINGSTON       MOSUNNY   82  66  57 S9        29.92F
NASSAU         MOSUNNY   77  63  61 N5        30.02F
SAN JUAN       MOSUNNY   81  63  54 N9G20     29.95S
SANTO DOMINGO  MOSUNNY   86  70  58 S9        29.92F HX  90
ST. CROIX      MOSUNNY   81  64  57 SE9       29.94F
ST. KITTS      MOSUNNY   81  68  65 E10       29.92S
ST. THOMAS     SUNNY     81  64  57 S6        29.93F

$$




USA.gov is the U.S. government's official web portal to all federal, state and local government web resources and services.